FW7213 Weather Reports


Display with metric or nautical units.
time (UTC)temp
F
wind
direction
speed
MPH
gust
MPH
rain 1hr
in
rain 24hr
in
rain mn
in
humidity
%
barometer
mb
20260510185558 79 248 1.0 4.0 0.00 0.01 0.00 71 1016.9
20260510185057 79 303 0.0 4.0 0.00 0.01 0.00 74 1016.9
20260510184558 78 271 2.0 4.0 0.00 0.01 0.00 75 1016.9
20260510184101 79 318 0.0 5.0 0.00 0.01 0.00 77 1017.0
20260510183559 79 0 1.0 5.0 0.00 0.01 0.00 77 1017.0
20260510183101 79 240 0.0 3.0 0.00 0.01 0.00 73 1017.0
20260510182557 79 263 0.0 2.0 0.00 0.01 0.00 73 1017.1
20260510182057 78 0 0.0 2.0 0.00 0.01 0.00 78 1017.2
20260510181559 78 1 0.0 3.0 0.00 0.01 0.00 76 1017.2
20260510181100 77 360 1.0 3.0 0.00 0.01 0.00 80 1017.3
20260510180559 78 0 0.0 2.0 0.00 0.01 0.00 79 1017.3
20260510180056 77 0 0.0 2.0 0.00 0.01 0.00 77 1017.5
20260510175557 77 355 1.0 2.0 0.00 0.02 0.00 76 1017.5
20260510175100 78 305 0.0 2.0 0.00 0.02 0.00 77 1017.6
20260510174559 78 347 0.0 3.0 0.00 0.02 0.00 79 1017.7
20260510174058 77 354 0.0 3.0 0.00 0.02 0.00 80 1017.7
20260510173558 77 303 1.0 3.0 0.00 0.02 0.00 79 1017.7
20260510173105 77 52 1.0 3.0 0.00 0.02 0.00 75 1017.8
20260510172558 77 0 0.0 3.0 0.00 0.02 0.00 75 1017.8
20260510172058 77 0 0.0 2.0 0.00 0.02 0.00 78 1017.8
20260510171559 76 0 0.0 3.0 0.00 0.02 0.00 80 1017.6
20260510171058 76 0 0.0 3.0 0.00 0.02 0.00 80 1017.7
20260510170557 77 356 1.0 3.0 0.00 0.02 0.00 80 1017.8
20260510170107 77 234 0.0 4.0 0.00 0.02 0.00 79 1017.8
20260510165558 76 0 1.0 4.0 0.00 0.05 0.00 80 1017.8
20260510165058 76 0 0.0 4.0 0.00 0.05 0.00 79 1018.0
20260510164556 76 311 0.0 3.0 0.00 0.05 0.00 82 1018.0
20260510164057 76 250 1.0 3.0 0.00 0.05 0.00 81 1018.1
20260510163557 76 218 0.0 1.0 0.00 0.05 0.00 77 1018.0
20260510163058 75 0 0.0 1.0 0.00 0.05 0.00 77 1018.1
20260510162557 75 293 0.0 1.0 0.00 0.05 0.00 82 1018.0
20260510162056 75 0 0.0 1.0 0.00 0.05 0.00 79 1018.0
20260510161559 74 0 0.0 1.0 0.00 0.05 0.00 80 1018.1
20260510161056 75 0 0.0 2.0 0.00 0.05 0.00 82 1018.1
20260510160557 75 0 0.0 2.0 0.00 0.05 0.00 82 1018.1
20260510160058 75 0 0.0 4.0 0.00 0.05 0.00 85 1018.2
20260510155559 74 0 0.0 5.0 0.00 0.20 0.00 83 1018.2
20260510155058 74 0 0.0 5.0 0.00 0.20 0.00 86 1018.2
20260510154556 74 229 0.0 4.0 0.00 0.20 0.00 83 1018.1
20260510154056 73 0 0.0 4.0 0.00 0.20 0.00 86 1018.1
20260510153556 73 0 0.0 4.0 0.00 0.20 0.00 87 1018.0
20260510153054 73 295 0.0 2.0 0.00 0.20 0.00 84 1018.2
20260510152601 73 0 0.0 2.0 0.00 0.20 0.00 88 1018.2
20260510152056 73 0 0.0 2.0 0.00 0.20 0.00 86 1018.3
20260510151602 72 0 0.0 2.0 0.00 0.20 0.00 85 1018.3
20260510151055 72 246 1.0 3.0 0.00 0.20 0.00 90 1018.3
20260510150556 72 326 0.0 3.0 0.00 0.20 0.00 90 1018.2
20260510150058 72 0 1.0 3.0 0.00 0.20 0.00 91 1018.1
20260510145556 72 263 0.0 1.0 0.00 0.65 0.00 89 1018.2
20260510145056 72 312 0.0 1.0 0.00 0.65 0.00 90 1018.2
20260510144556 71 0 0.0 1.0 0.00 0.65 0.00 88 1018.2
20260510144055 71 307 0.0 2.0 0.00 0.65 0.00 94 1018.2
20260510143556 71 0 0.0 2.0 0.00 0.65 0.00 90 1018.3
20260510143055 71 0 0.0 2.0 0.00 0.65 0.00 89 1018.2
20260510142558 70 0 0.0 2.0 0.00 0.65 0.00 89 1018.1
20260510142100 70 0 1.0 2.0 0.00 0.65 0.00 91 1018.0
20260510141603 70 0 0.0 1.0 0.00 0.65 0.00 92 1018.0
20260510141055 69 152 0.0 1.0 0.00 0.65 0.00 96 1017.9
20260510140555 69 0 0.0 0.0 0.00 0.65 0.00 97 1017.9
20260510140056 68 0 0.0 1.0 0.00 0.65 0.00 97 1018.0
20260510135555 68 0 0.0 1.0 0.00 0.80 0.00 97 1018.1
20260510135056 67 0 0.0 1.0 0.00 0.80 0.00 97 1018.1
20260510134604 67 285 0.0 1.0 0.00 0.80 0.00 97 1018.1
20260510134058 67 0 0.0 1.0 0.00 0.80 0.00 97 1017.9
20260510133558 67 0 0.0 1.0 0.00 0.80 0.00 97 1017.8
20260510133116 67 266 0.0 1.0 0.00 0.80 0.00 97 1017.8
20260510132558 66 0 0.0 1.0 0.00 0.80 0.00 97 1017.6
20260510132101 66 0 0.0 1.0 0.00 0.80 0.00 97 1017.7
20260510131603 66 0 0.0 0.0 0.00 0.80 0.00 97 1017.6
20260510131058 66 0 0.0 0.0 0.00 0.80 0.00 97 1017.6
20260510130558 65 0 0.0 0.0 0.00 0.80 0.00 97 1017.5
20260510130057 65 0 0.0 0.0 0.00 0.80 0.00 97 1017.5
20260510125558 65 0 0.0 0.0 0.00 0.83 0.00 97 1017.4
20260510125057 65 0 0.0 0.0 0.00 0.83 0.00 97 1017.3
20260510124559 64 0 0.0 0.0 0.00 0.83 0.00 97 1017.3
20260510124058 64 0 0.0 0.0 0.00 0.83 0.00 97 1017.4
20260510123558 64 0 0.0 0.0 0.00 0.83 0.00 97 1017.4
20260510123102 63 0 0.0 0.0 0.00 0.83 0.00 97 1017.3
20260510122559 63 0 0.0 0.0 0.00 0.83 0.00 97 1017.2
20260510122058 63 0 0.0 0.0 0.00 0.83 0.00 97 1017.2
20260510121558 63 0 0.0 0.0 0.00 0.83 0.00 97 1017.1
20260510121058 62 0 0.0 0.0 0.00 0.83 0.00 97 1017.1
20260510120559 62 0 0.0 0.0 0.00 0.83 0.00 97 1016.9
20260510120056 62 0 0.0 0.0 0.00 0.83 0.00 97 1016.9
20260510115600 62 0 0.0 0.0 0.00 0.83 0.00 97 1016.8
20260510115058 61 0 0.0 0.0 0.00 0.83 0.00 97 1016.7
20260510114602 61 0 0.0 0.0 0.00 0.83 0.00 97 1016.7
20260510114058 61 0 0.0 1.0 0.00 0.83 0.00 97 1016.7
20260510113557 61 0 0.0 1.0 0.00 0.83 0.00 97 1016.5
20260510113057 61 0 0.0 1.0 0.00 0.83 0.00 97 1016.5
20260510112558 61 0 0.0 0.0 0.00 0.83 0.00 97 1016.3
20260510112058 60 0 0.0 0.0 0.00 0.83 0.00 97 1016.3
20260510111602 60 0 0.0 0.0 0.00 0.83 0.00 97 1016.2
20260510111058 60 0 0.0 0.0 0.00 0.83 0.00 97 1016.1
20260510110557 60 0 0.0 0.0 0.00 0.83 0.00 97 1016.1
20260510110055 60 0 0.0 0.0 0.00 0.83 0.00 97 1016.1
20260510105557 60 0 0.0 0.0 0.00 0.83 0.00 97 1015.9
20260510105058 60 0 0.0 0.0 0.00 0.83 0.00 97 1015.9
20260510104558 60 0 0.0 0.0 0.00 0.83 0.00 97 1015.8
20260510104102 60 0 0.0 0.0 0.00 0.83 0.00 97 1015.6
20260510103558 60 0 0.0 0.0 0.00 0.83 0.00 97 1015.6
20260510103059 60 0 0.0 0.0 0.00 0.83 0.00 97 1015.5
20260510102555 60 0 0.0 0.0 0.00 0.83 0.00 97 1015.4
20260510102058 60 0 0.0 0.0 0.00 0.83 0.00 97 1015.4
20260510101557 60 0 0.0 0.0 0.00 0.83 0.00 97 1015.4
20260510101058 60 0 0.0 0.0 0.00 0.83 0.00 97 1015.3
20260510100556 60 0 0.0 0.0 0.00 0.83 0.00 97 1015.4
20260510100055 61 0 0.0 0.0 0.00 0.83 0.00 97 1015.4
20260510095556 61 0 0.0 0.0 0.00 0.83 0.00 97 1015.4
20260510095056 61 0 0.0 0.0 0.00 0.83 0.00 97 1015.4
20260510094556 61 0 0.0 0.0 0.00 0.83 0.00 97 1015.3
20260510094058 61 0 0.0 0.0 0.00 0.83 0.00 97 1015.3
20260510093556 61 0 0.0 0.0 0.00 0.83 0.00 97 1015.3
20260510093055 61 0 0.0 0.0 0.00 0.83 0.00 97 1015.3
20260510092558 61 0 0.0 0.0 0.00 0.83 0.00 97 1015.5
20260510092057 61 0 0.0 0.0 0.00 0.83 0.00 97 1015.3
20260510091600 61 0 0.0 0.0 0.00 0.83 0.00 97 1015.2
20260510091056 61 0 0.0 0.0 0.00 0.83 0.00 97 1015.1
20260510090556 61 0 0.0 0.0 0.00 0.83 0.00 97 1015.1
20260510090101 61 0 0.0 0.0 0.00 0.83 0.00 97 1014.9
20260510085602 61 0 0.0 0.0 0.00 0.83 0.00 97 1014.7
20260510085058 61 0 0.0 0.0 0.00 0.83 0.00 97 1014.7
20260510084559 61 0 0.0 0.0 0.00 0.83 0.00 97 1014.6
20260510084058 61 0 0.0 0.0 0.00 0.83 0.00 97 1014.5
20260510083559 61 0 0.0 0.0 0.00 0.83 0.00 97 1014.5
20260510083057 61 0 0.0 0.0 0.00 0.83 0.00 97 1014.3
20260510082557 61 0 0.0 0.0 0.00 0.83 0.00 97 1014.2
20260510082056 62 0 0.0 0.0 0.00 0.83 0.00 97 1014.3
20260510081556 62 0 0.0 0.0 0.00 0.83 0.00 97 1014.3
20260510081055 62 0 0.0 0.0 0.00 0.83 0.00 97 1014.3
20260510080555 62 0 0.0 0.0 0.00 0.83 0.00 97 1014.3
20260510080056 62 0 0.0 0.0 0.00 0.83 0.00 97 1014.3
20260510075555 62 0 0.0 0.0 0.00 0.83 0.00 97 1014.3
20260510075056 62 0 0.0 0.0 0.00 0.83 0.00 97 1014.3
20260510074602 62 0 0.0 0.0 0.00 0.83 0.00 97 1014.3
20260510074056 63 0 0.0 0.0 0.00 0.83 0.00 97 1014.2
20260510073556 63 0 0.0 0.0 0.00 0.83 0.00 97 1014.0
20260510073114 63 0 0.0 0.0 0.00 0.83 0.00 97 1014.0
20260510072556 63 0 0.0 0.0 0.00 0.83 0.00 97 1014.0
20260510072058 63 0 0.0 0.0 0.00 0.83 0.00 97 1014.1
20260510071606 63 0 0.0 0.0 0.00 0.83 0.00 97 1014.1
20260510071059 62 0 0.0 0.0 0.00 0.83 0.00 97 1014.1
20260510070558 62 0 0.0 0.0 0.00 0.83 0.00 97 1014.1
20260510070058 62 0 0.0 0.0 0.00 0.83 0.00 97 1014.2
20260510065556 62 0 0.0 0.0 0.00 0.83 0.00 97 1014.0
20260510065056 62 0 0.0 0.0 0.00 0.83 0.00 97 1013.9
20260510064603 62 0 0.0 0.0 0.00 0.83 0.00 97 1014.0
20260510064055 62 0 0.0 0.0 0.00 0.83 0.00 97 1013.8
20260510063556 62 0 0.0 0.0 0.00 0.83 0.00 97 1013.9
20260510063103 63 0 0.0 0.0 0.00 0.83 0.00 97 1013.9
20260510062556 63 0 0.0 0.0 0.00 0.83 0.00 97 1014.2
20260510062055 63 0 0.0 0.0 0.00 0.83 0.00 97 1014.2
20260510061557 63 0 0.0 0.0 0.00 0.83 0.00 97 1014.2
20260510061059 63 0 0.0 0.0 0.00 0.83 0.00 97 1014.1
20260510060559 63 0 0.0 0.0 0.00 0.83 0.00 97 1014.1
20260510060059 63 0 0.0 0.0 0.00 0.83 0.00 97 1013.9
20260510055558 63 0 0.0 0.0 0.00 0.83 0.00 97 1014.0
20260510055056 63 0 0.0 0.0 0.00 0.83 0.00 97 1014.1
20260510054557 63 0 0.0 0.0 0.00 0.83 0.00 97 1014.0
20260510054055 64 0 0.0 0.0 0.00 0.83 0.00 97 1014.0
20260510053558 64 0 0.0 0.0 0.00 0.83 0.00 97 1014.1
20260510053057 64 0 0.0 1.0 0.00 0.83 0.00 97 1014.2
20260510052558 64 0 0.0 1.0 0.00 0.83 0.00 97 1014.2
20260510052058 64 0 0.0 1.0 0.00 0.83 0.00 97 1014.3
20260510051558 64 0 0.0 1.0 0.00 0.83 0.00 97 1014.4
20260510051055 64 0 0.0 0.0 0.00 0.83 0.00 97 1014.5
20260510050557 64 0 0.0 0.0 0.00 0.83 0.00 97 1014.6
20260510050056 64 0 0.0 0.0 0.00 0.83 0.00 97 1014.8
20260510045558 64 0 0.0 0.0 0.00 0.83 0.83 97 1014.7
20260510045057 64 0 0.0 0.0 0.00 0.83 0.83 97 1014.7
20260510044558 64 0 0.0 0.0 0.00 0.83 0.83 97 1014.7
20260510044054 64 0 0.0 0.0 0.00 0.83 0.83 97 1014.9
20260510043555 64 0 0.0 0.0 0.00 0.83 0.83 97 1014.9
20260510043109 64 0 0.0 1.0 0.00 0.83 0.83 97 1014.9
20260510042559 64 0 0.0 1.0 0.00 0.83 0.83 97 1014.8
20260510042055 64 140 0.0 1.0 0.00 0.83 0.83 97 1014.7
20260510041557 64 0 0.0 0.0 0.00 0.83 0.83 97 1014.6
20260510041058 64 0 0.0 0.0 0.00 0.83 0.83 97 1014.7
20260510040558 64 0 0.0 0.0 0.00 0.83 0.83 97 1014.8
20260510040110 64 0 0.0 0.0 0.00 0.83 0.83 97 1014.9
20260510035558 65 0 0.0 0.0 0.00 0.83 0.83 97 1015.0
20260510035058 65 0 0.0 1.0 0.00 0.83 0.83 97 1015.0
20260510034604 65 0 0.0 1.0 0.00 0.83 0.83 97 1015.0
20260510034058 65 0 0.0 1.0 0.00 0.83 0.83 97 1015.2
20260510033557 65 0 0.0 0.0 0.00 0.83 0.83 97 1015.4
20260510033055 65 0 0.0 0.0 0.00 0.83 0.83 97 1015.2
20260510032559 65 0 0.0 0.0 0.00 0.83 0.83 97 1015.3
20260510032058 65 0 0.0 1.0 0.00 0.83 0.83 97 1015.1
20260510031600 65 0 0.0 1.0 0.00 0.83 0.83 97 1015.1
20260510031058 65 0 0.0 1.0 0.00 0.83 0.83 97 1015.0
20260510030558 65 0 0.0 0.0 0.00 0.83 0.83 97 1015.2
20260510030056 65 0 0.0 0.0 0.00 0.83 0.83 97 1015.1
20260510025555 65 0 0.0 1.0 0.00 0.83 0.83 97 1015.1
20260510025059 65 0 0.0 1.0 0.00 0.83 0.83 97 1015.1
20260510024559 65 112 0.0 1.0 0.00 0.83 0.83 97 1015.0
20260510024059 65 0 0.0 2.0 0.00 0.83 0.83 97 1014.9
20260510023559 65 109 0.0 2.0 0.00 0.83 0.83 97 1014.7
20260510023057 65 0 1.0 2.0 0.00 0.83 0.83 97 1014.8
20260510022558 65 0 0.0 0.0 0.00 0.83 0.83 97 1014.6
20260510022057 65 0 0.0 0.0 0.00 0.83 0.83 97 1014.5
20260510021600 65 0 0.0 0.0 0.00 0.83 0.83 97 1014.8
20260510021057 65 0 0.0 2.0 0.00 0.83 0.83 97 1014.8
20260510020558 65 0 0.0 2.0 0.00 0.83 0.83 97 1014.6
20260510020059 65 148 0.0 1.0 0.00 0.83 0.83 97 1014.6
20260510015559 65 146 0.0 2.0 0.00 0.83 0.83 97 1014.6
20260510015101 65 0 1.0 2.0 0.00 0.83 0.83 97 1014.5
20260510014606 65 152 0.0 2.0 0.00 0.83 0.83 97 1014.6
20260510014056 65 0 1.0 2.0 0.00 0.83 0.83 97 1014.5
20260510013601 65 0 0.0 0.0 0.00 0.83 0.83 97 1014.5
20260510013055 65 0 0.0 0.0 0.00 0.83 0.83 97 1014.5
20260510012555 65 0 0.0 0.0 0.00 0.83 0.83 97 1014.6
20260510012055 65 0 0.0 0.0 0.00 0.83 0.83 97 1014.6
20260510011558 65 0 0.0 0.0 0.00 0.83 0.83 97 1014.5
20260510011059 65 0 0.0 0.0 0.00 0.83 0.83 97 1014.5
20260510010558 66 0 0.0 0.0 0.00 0.83 0.83 97 1014.5
20260510010056 66 0 0.0 0.0 0.00 0.83 0.83 97 1014.5
20260510005558 66 0 0.0 0.0 0.00 0.83 0.83 97 1014.3
20260510005057 66 0 0.0 0.0 0.00 0.83 0.83 97 1014.2
20260510004556 66 0 0.0 0.0 0.00 0.83 0.83 97 1014.0
20260510004102 66 0 0.0 0.0 0.00 0.83 0.83 97 1014.1
20260510003558 66 0 0.0 0.0 0.00 0.83 0.83 97 1014.0
20260510003103 66 0 0.0 0.0 0.00 0.83 0.83 97 1014.0
20260510002557 66 0 0.0 0.0 0.00 0.83 0.83 97 1013.8
20260510002054 66 0 0.0 0.0 0.00 0.83 0.83 97 1013.6
20260510001556 66 0 0.0 0.0 0.00 0.83 0.83 97 1013.6
20260510001054 66 0 0.0 0.0 0.00 0.83 0.83 97 1013.5
20260510000558 66 0 0.0 1.0 0.00 0.83 0.83 97 1013.6
20260510000059 67 0 0.0 1.0 0.00 0.83 0.83 97 1013.7
20260509235558 67 0 0.0 1.0 0.00 0.85 0.83 97 1013.9
20260509235059 67 0 0.0 0.0 0.00 0.85 0.83 97 1013.9
20260509234555 67 0 0.0 0.0 0.00 0.85 0.83 97 1013.9
20260509234058 67 0 0.0 0.0 0.00 0.85 0.83 97 1014.1
20260509233600 67 0 0.0 0.0 0.00 0.85 0.83 97 1014.0
20260509233057 67 0 0.0 0.0 0.00 0.85 0.83 97 1013.8
20260509232601 67 0 0.0 0.0 0.00 0.85 0.83 97 1013.7
20260509232058 67 0 0.0 0.0 0.00 0.85 0.83 97 1013.8
20260509231558 67 0 0.0 0.0 0.00 0.85 0.83 97 1013.8
20260509231057 67 0 0.0 0.0 0.00 0.85 0.83 96 1013.7
20260509230555 67 0 0.0 1.0 0.00 0.85 0.83 96 1013.6
20260509230058 67 0 0.0 1.0 0.00 0.85 0.83 96 1013.6
20260509225558 68 0 0.0 1.0 0.00 0.89 0.83 96 1013.5
20260509225054 68 0 0.0 0.0 0.00 0.89 0.83 96 1013.6
20260509224626 68 0 0.0 0.0 0.00 0.89 0.83 96 1013.6
20260509224059 68 0 0.0 0.0 0.00 0.89 0.83 95 1013.5
20260509223559 68 0 0.0 1.0 0.00 0.89 0.83 95 1013.5
20260509223104 68 0 0.0 1.0 0.00 0.89 0.83 95 1013.3
20260509222601 68 0 0.0 1.0 0.00 0.89 0.83 93 1013.3
20260509222057 68 0 0.0 1.0 0.00 0.89 0.83 93 1013.3
20260509221606 68 0 0.0 1.0 0.00 0.89 0.83 93 1013.2
20260509221058 68 0 0.0 1.0 0.00 0.89 0.83 93 1013.2
20260509220600 68 0 0.0 2.0 0.00 0.89 0.83 93 1013.1
20260509220057 69 0 0.0 2.0 0.00 0.89 0.83 92 1013.0
20260509215557 69 148 0.0 1.0 0.00 0.91 0.83 95 1012.9
20260509215057 69 0 0.0 1.0 0.00 0.91 0.83 95 1012.9
20260509214607 69 0 0.0 1.0 0.00 0.91 0.83 94 1012.8
20260509214057 69 0 0.0 0.0 0.00 0.91 0.83 94 1012.7
20260509213559 68 0 0.0 0.0 0.00 0.91 0.83 94 1012.7
20260509213057 68 0 0.0 0.0 0.00 0.91 0.83 94 1012.6
20260509212556 68 0 0.0 0.0 0.00 0.91 0.83 94 1012.7
20260509212059 68 0 0.0 0.0 0.00 0.91 0.83 95 1012.3
20260509211559 68 0 0.0 2.0 0.00 0.91 0.83 94 1012.3
20260509211059 68 0 0.0 2.0 0.00 0.91 0.83 95 1012.5
20260509210556 67 0 0.0 1.0 0.00 0.91 0.83 96 1012.4
20260509210114 67 149 0.0 1.0 0.00 0.91 0.83 96 1012.2
20260509205556 67 0 0.0 1.0 0.00 0.92 0.83 96 1012.5
20260509205056 67 155 0.0 1.0 0.00 0.92 0.83 97 1012.2
20260509204559 67 0 0.0 1.0 0.00 0.92 0.83 96 1012.2
20260509204057 67 0 0.0 2.0 0.00 0.92 0.83 96 1012.3
20260509203556 67 0 0.0 2.0 0.00 0.92 0.83 96 1012.4
20260509203056 67 0 0.0 2.0 0.00 0.92 0.83 98 1012.3
20260509202557 67 140 0.0 2.0 0.00 0.92 0.83 96 1012.3
20260509202057 67 0 0.0 2.0 0.00 0.92 0.83 96 1012.3
20260509201601 67 143 0.0 4.0 0.00 0.92 0.83 96 1012.2
20260509201057 67 141 1.0 4.0 0.00 0.92 0.83 95 1012.2
20260509200556 67 144 1.0 4.0 0.00 0.92 0.83 96 1012.5
20260509200103 67 0 1.0 3.0 0.00 0.92 0.83 99 1012.5
20260509195557 67 144 0.0 5.0 0.00 1.00 0.83 97 1012.8
20260509195058 67 0 2.0 5.0 0.00 1.00 0.83 96 1012.4
20260509194603 67 151 0.0 1.0 0.00 1.00 0.83 96 1012.4
20260509194058 67 0 0.0 3.0 0.00 1.00 0.83 97 1012.7
20260509193558 66 0 0.0 3.0 0.01 1.00 0.83 97 1012.3
20260509193108 66 0 0.0 1.0 0.01 1.00 0.83 97 1012.2
20260509192600 66 0 0.0 2.0 0.01 1.00 0.83 97 1012.5
20260509192057 66 2 0.0 2.0 0.01 1.00 0.83 97 1012.4
20260509191603 66 18 0.0 5.0 0.01 1.00 0.83 97 1012.3
20260509191059 66 351 1.0 5.0 0.01 1.00 0.83 97 1012.4
20260509190554 66 106 1.0 5.0 0.01 1.00 0.83 97 1011.5
20260509190109 65 147 1.0 4.0 0.01 1.00 0.83 97 1011.7